Погода Илыинский

Погода Илыинский : погода сейчас, прогноз погоды и архив. Всё, что Вы хотите узнать о погоде Илыинский!

Хотите узнать прогноз погоды Илыинский? Тогда Вам сюда: Погода Илыинский

Поиск расширенной информации на нашем сайте:

Другие новости

Новости СМИ2

Главная страница сайта

Новости сайта

03.07.2017

Напоминаем, что на нашем специализированном сайте Метеоцентр.Азия вы можете получить высокодетализированные автоматические прогнозы погоды по пунктам России, СНГ и мира в авиационном формате (включающие направление и скорость ветра, видимость, явления погоды, количество и форму облачности, нижнюю и верхнюю границу облачности).

Рекомендуем: Проверенные лично мной дженерики виагры. Доставка виагры в день заказа.

Погода Илыинский - сегодня

Время (UTC), дата Ветер
(°,м/с) 
Видим.   Явления Облачность Т
(°С)
Тd
(°С)
f(%) Тe
(°С)
Pmin
(гПа)
dP
(гПа)
Po
(мм)
O2
(г/м3)
Тmin Tmax R s Состояние
почвы
06 09.12.17 290 (З) 7-12{13}  10 км  слаб. ливневой снег  9/9 300 м кучево-дожд. 
[Cb cap]
-11.1 -16.3 65 -17  1007.2  0.5  754  318           
09 09.12.17 280 (З) 7-12{13}  10 км  слаб. ливневой снег  10/10 300 м кучево-дожд. 
[Cb cap]
-10.9 -16.1 65 -17  1007.9  0.7  754  318    -10.8     
12 09.12.17 290 (З) 8-12{13}  10 км  слаб. ливневой снег  10/10 300 м кучево-дожд. 
[Cb cap]
-10.7 -13.9 77 -17  1007.8  0.1  754  317           
15 09.12.17 290 (З) 9-14{14}  10 км  слаб. ливневой снег  10/10 300 м кучево-дожд. 
[Cb cap]
-10.6 -15.6 67 -18  1008.2  0.4  754  318           
18 09.12.17 290 (З) 9-14{16}  10 км  слаб. ливневой снег  10/10 300 м кучево-дожд. 
[Cb cap]
-10.8 -15.8 67 -18  1009.8  1.6  756  318           
21 09.12.17 280 (З) 8-12{16}  10 км  слаб. ливневой снег  9/9 300 м кучево-дожд. 
[Cb cap]
-10.2 -14.5 71 -17  1010.9  1.1  756  318  -11.1    0.8  13  равномерный
сухой снег
100% 
00 10.12.17 290 (З) 7-12{13}  10 км  {ливн. осадки}  9/9 600 м кучево-дожд. 
[Cb cap]
-9.1 -13.6 70 -15  1012.9  758  317           
03 10.12.17 270 (З) 7-10{12}  10 км  в посл. час ливневой снег  10/6 600 м кучево-дожд., средняя 
[Cb cap|Ac trans]
-8.6 -12.2 75 -14  1013.9  1.1  759  317           
06 10.12.17 260 (З) 5-7{10}  20000 м  слаб. ливневой снег  9/6 600 м кучево-дожд., средняя 
[Cb cap|Ac trans]
-8 -11.5 76 -12  1015.1  1.2  760  316           
09 10.12.17 290 (З) 3-4{07}  10 км  {ливн. осадки}  8/4 600 м кучево-дожд., средняя 
[Cb cap|Ac trans]
-7.2 -11.2 73 -10  1016  0.9  760  316    -7.2  0.0     
12 10.12.17 010 (С) 2-2{05}  10 км  {ливн. осадки}  4/4 600 м кучево-дожд. 
[Cb cap]
-9.9 -14.5 69 -12  1016.6  0.6  761  319           
15 10.12.17 120 (ЮВ) 3-4{04}  10 км    ясно 
-16.3 -19 80 -20  1016.9  0.2  761  328           
18 10.12.17 100 (В) 3-5{06}  10 км    ясно 
-17.1 -20.9 72 -21  1014.8  -2.1  759  328           
21 10.12.17 050 (СВ) 5-8{10}  10 км    10/0 верхняя 
[Cs]
-7.4 -12.8 65 -12  1012.8  -1.8  758  315  -18.3    0.0  11  равномерный
сухой снег
100% 
00 11.12.17 060 (СВ) 4-7{10}  20000 м    10/10 600 м кучево-дожд. 
[Cb cap]
-5.9 -11.1 67 -9  1011.1  -1.8  757  313           
03 11.12.17 060 (СВ) 7-11{12}  10 км  слаб. ливневой снег  10/10 300 м кучево-дожд. 
[Cb cap]
-5.8 -9.4 76 -11  1007.4  -3.7  754  311           
06 11.12.17 070 (В) 7-15{14}  0500 м  ливневой снег  10/10 300 м кучево-дожд. 
[Cb cap]
-4.9 -6.7 87 -10  1003.8  -3.5  751  309           
09 11.12.17 070 (В) 8-16{16}  0500 м  ливневой снег  10/10 300 м кучево-дожд. 
[Cb cap]
-3.9 -5.3 90 -9  1001.6  -2.1  749  307    -3.5     
12 11.12.17 060 (СВ) 11-17{20}  0500 м  ливневой снег  10/10 300 м кучево-дожд. 
[Cb cap]
-5.5 -7.4 86 -12  1000.3  -1.3  749  309           
15 11.12.17 050 (СВ) 13-18{23}  0500 м  ливневой снег  10/10 300 м кучево-дожд. 
[Cb cap]
-5.5 -8 83 -13  999  -1.3  747  308           
18 11.12.17 050 (СВ) 10-15{20}  1000 м  ливневой снег  10/10 300 м кучево-дожд. 
[Cb cap]
-4.6 -7.8 78 -11  997.5  -1.5  746  307           
21 11.12.17 350 (С) 2-3{20}  10 км  слаб. ливневой снег  10/10 600 м кучево-дожд. 
[Cb cap]
-3.3 -6.3 80 -4  997  -0.4  746  305  -5.8    равномерный
сухой снег
100% 
00 12.12.17 тихо () {05}  10 км  слаб. ливневой снег  10/10 300 м кучево-дожд. 
[Cb cap]
-3.5 -4.5 93 -4  995.5  -1.5  745  305           
03 12.12.17 310 (СЗ) 1-2{05}  10 км  слаб. ливневой снег  10/10 300 м кучево-дожд. 
[Cb cap]
-2.4 -4 89 -2  992.3  -3.2  743  302           
06 12.12.17 330 (СЗ) 7-10{11}  0500 м  ливневой снег  10/10 300 м кучево-дожд. 
[Cb cap]
-2.3 -3 95 -7  990.2  -2  741  301           
Время (UTC), дата Ветер
(°,м/с) 
Видим.   Явления Облачность Т
(°С)
Тd
(°С)
f(%) Тe
(°С)
Pmin
(гПа)
dP
(гПа)
Po
(мм)
O2
(г/м3)
Тmin Tmax R s Состояние
почвы

Для получения пояснительной информации подведите курсор к названию столбца.

ПОГОДА Илыинский - архив

Всё, что Вы хотите узнать о погоде Илыинский - удобно и подробно!

Выберите нужную дату (начиная с 1 января 2015* года) и нажмите кнопку "Найти".
Будут отображены архивные сводки погоды по пункту Илыинский, начиная с указанной даты.


Отображать данные в формате CSV (для использования в таблицах Excel)


Внимание! Наш архив погоды предназначен исключительно для личного некоммерческого использования в познавательных целях. Если Вам необходимы официальные справки о состоянии погоды (для производственных, юридических, коммерческих и т.п. целей), обращайтесь в органы Росгидромета.

*Примечание: данная дата относится к архиву по метеостанциям СССР (Россия, СНГ, Балтия).
Архив по метеостанциям Зарубежной Европы и Азии (кроме Китая) хранится 10 дней, по другим регионам земного шара (Китай, Африка, Америка, Австралия, Океания) - 1 день.

Илыинский - район местоположения метеостанции


Название, широта, долгота, высота метеостанции:
Илыинский 48°ш. 142.2°д. 18 м над ур. моря [Российская Федерация]

Дополнительная информация

В oтличие oт бoльшинства пoгoдных сайтoв мы публикуем пoдрoбную метеoинфoрмацию в детальнoм прoфессиoнальнoм фoрмате.

Характеристики температуры и влажнoсти вoздуха измеряются на высoте 2 м в тени вдали oт зданий и деревьев.
Скoрoсть ветра измеряется на высoте 10 м (на урoвне рoста челoвека скoрoсть ветра ниже в 1.5-2 раза). Если метеoстанция нахoдится в гoрoде или в лесу, тo скoрoсть ветра занижена на 2-4 м/с пo сравнению с oткрытым местoм. Скoрoсть ветра над акватoриями крупных рек и oзёр, а также на вершинах хoлмoв на 2-5 м/с выше, чем в oбычных услoвиях.
Атмoсфернoе давление в разных тoчках местнoсти мoжет значительнo oтличаться oт давления на метеoстанции, в зависимoсти oт услoвий рельефа (при пoдъёме на 10 м давление пoнижается примернo на 1 мм рт.ст.).